GFSSGP_sfc_dewp_132.txt.gz
Dewpoint
57 38 37 36 31 33 33 36 38 36 39 52 50 51 52 55 52 52 66 69 72 75 76 76 76 77 77 76 76 75 75 75 75 76 76 76 76 76 76 76 76 76 74 72 71 71 71 72 71
45 39 34 32 28 27 28 34 32 34 51 53 52 53 53 52 58 60 68 71 72 75 76 76 76 76 76 76 75 75 75 75 75 76 76 76 76 75 76 76 75 74 73 72 71 71 71 71 70
48 39 31 28 27 26 28 31 32 33 36 51 53 55 54 56 58 64 68 70 72 74 75 76 77 76 76 76 75 75 75 75 75 76 76 76 76 76 75 75 75 73 72 72 72 72 72 72 71
37 34 32 26 27 28 29 30 32 32 32 56 55 55 57 61 61 65 70 71 71 73 74 77 77 76 76 76 75 75 75 75 75 76 76 76 76 76 75 75 74 73 72 72 72 72 73 72 72
35 32 27 26 27 29 30 32 32 32 32 43 54 50 56 58 60 66 70 70 70 72 75 76 77 76 76 76 75 75 75 75 75 75 76 76 76 76 75 75 74 73 73 72 72 72 73 73 73
32 31 25 24 25 26 28 30 31 32 33 48 53 54 53 57 63 69 70 68 70 73 75 76 77 76 76 75 75 75 75 75 75 75 75 75 75 75 75 74 74 73 74 74 73 73 73 72 72
31 29 26 24 23 24 25 30 31 35 38 46 53 50 56 58 62 68 68 69 71 72 74 75 75 76 76 75 75 75 75 75 75 75 75 75 75 75 75 74 74 73 73 74 74 74 73 72 72
31 29 27 27 26 24 26 29 33 40 39 40 55 55 54 60 64 66 66 71 71 72 73 73 74 74 75 75 76 75 75 75 75 75 75 75 75 74 74 73 73 73 73 73 73 73 73 73 72
29 26 25 26 26 26 26 28 38 41 37 37 52 56 59 61 63 64 68 69 69 70 72 73 73 73 73 74 75 75 75 75 75 75 75 73 72 73 73 73 73 73 73 73 73 73 73 73 72
25 25 26 26 27 26 28 36 37 36 36 35 40 45 53 62 62 66 65 66 67 68 70 72 72 72 72 73 73 74 74 74 74 73 73 71 70 71 71 72 73 73 73 72 72 72 72 72 69
25 23 25 27 27 26 30 36 39 37 34 37 39 54 64 65 63 65 65 65 65 67 68 70 70 70 72 72 72 73 73 73 73 72 71 70 69 70 70 69 70 71 72 70 71 70 70 68 66
24 24 23 24 25 26 29 36 37 38 35 40 42 61 56 60 65 64 66 67 65 65 66 67 67 67 67 72 71 71 71 71 70 70 70 69 67 67 68 68 68 69 70 69 67 67 66 66 65
22 24 23 23 22 24 32 36 38 38 40 37 41 45 57 59 65 65 67 68 67 67 67 65 65 65 64 68 67 67 68 68 68 68 70 68 67 66 67 67 68 69 68 68 66 65 65 64 63
21 21 22 22 21 24 31 35 37 38 41 39 37 43 52 63 65 66 66 67 66 66 67 67 66 64 66 66 64 65 65 66 66 67 68 68 65 66 66 66 68 68 68 67 66 64 66 66 67
21 19 20 20 21 29 38 35 37 41 40 39 40 39 46 56 60 65 60 65 67 67 68 68 68 68 68 65 64 65 65 65 65 65 67 68 66 65 65 67 67 67 67 66 68 68 68 68 69
12 18 17 18 19 27 34 23 36 39 40 39 39 42 42 46 48 51 61 65 66 67 68 69 70 66 67 70 68 66 66 65 65 65 66 68 68 67 67 70 69 69 69 69 67 67 66 65 64
14 12 16 17 18 34 36 28 38 40 41 39 39 41 42 43 44 58 65 66 65 66 67 68 69 68 66 67 69 69 69 68 66 69 69 68 68 70 70 71 70 70 68 66 65 63 64 61 63
13 13 14 15 19 33 36 37 39 40 40 40 41 41 41 43 43 44 63 64 64 65 67 66 69 69 68 65 66 72 71 69 70 70 69 68 68 69 71 71 71 70 67 66 65 63 61 61 60
17 13 12 14 17 36 37 38 38 39 39 38 40 40 42 43 43 43 53 65 64 61 65 65 66 64 66 65 67 70 70 70 71 71 71 71 69 70 70 70 70 69 66 66 65 62 60 61 64
15 15 14 16 34 32 35 36 38 39 39 40 41 43 43 43 43 46 55 60 62 61 61 61 62 62 61 66 67 69 69 69 70 71 72 72 72 72 72 70 70 69 68 68 66 66 66 66 65
13 13 15 15 35 37 37 37 38 39 42 41 40 42 43 44 43 41 45 56 59 61 61 61 60 59 59 65 68 69 71 70 70 70 71 71 72 72 72 70 70 70 68 68 68 68 66 63 62
11 14 15 20 33 33 40 31 35 36 36 36 37 39 42 44 44 41 38 49 56 59 61 59 61 63 62 66 68 70 70 70 69 69 70 71 71 71 71 70 70 69 69 67 66 68 65 62 60
13 15 16 18 27 30 35 33 33 36 34 34 35 37 41 43 42 40 39 37 39 53 58 57 58 63 65 66 68 72 69 68 66 67 69 69 70 70 70 70 69 68 68 66 64 66 64 61 59
15 15 15 23 22 22 23 31 25 30 35 32 37 40 40 43 41 39 38 39 48 52 54 56 57 60 66 69 69 68 67 66 66 65 68 68 69 69 70 70 69 68 66 65 63 62 62 60 59
14 12 11 16 23 21 25 25 26 30 30 31 32 38 39 43 39 39 42 51 52 53 57 60 61 61 67 68 67 67 67 66 66 65 66 67 66 66 68 68 67 66 65 63 62 60 59 60 59
11 11 14 17 20 14 25 23 24 26 26 26 32 35 39 41 41 49 52 54 59 60 61 63 64 65 66 66 66 65 67 67 66 65 65 65 64 63 65 66 64 64 64 62 60 59 59 59 60
9 10 15 14 25 20 20 23 24 24 22 25 28 32 34 37 50 55 57 59 59 58 59 60 59 60 62 62 60 60 61 61 61 61 62 62 61 62 63 62 62 62 63 61 60 59 58 59 58
9 11 16 28 20 21 25 30 24 35 23 26 28 31 45 52 53 54 54 55 55 55 53 54 55 55 55 55 56 58 59 59 59 59 60 58 58 58 59 60 62 62 62 61 60 59 58 58 58
8 9 26 30 28 26 26 28 37 38 37 26 35 41 50 50 52 53 50 48 51 50 48 48 48 50 52 52 53 52 54 54 55 55 55 55 57 57 56 57 58 59 60 60 61 61 61 60 59
8 8 28 26 28 35 33 32 41 40 37 37 40 48 48 49 52 49 47 45 45 45 45 46 46 46 47 50 50 50 50 50 50 51 51 53 52 54 55 55 55 55 55 56 57 57 56 58 59

GFSSGP_sfc_dewp_138.txt.gz
Dewpoint
62 51 38 35 33 32 32 33 38 35 39 52 53 51 49 48 48 39 65 68 72 73 75 76 76 76 76 75 75 75 75 75 75 75 75 75 75 76 76 76 75 74 73 72 72 73 73 72 72
60 43 33 31 32 29 29 32 35 35 44 39 52 53 50 47 57 66 66 69 72 74 75 75 77 76 75 75 75 75 75 75 75 75 75 75 76 76 76 76 75 73 72 71 72 72 72 72 71
45 38 30 29 28 29 29 30 33 32 33 33 46 54 53 54 60 65 67 71 72 74 74 75 76 76 76 75 75 75 75 74 74 74 75 75 76 76 76 76 75 73 71 71 71 72 72 71 72
37 34 31 27 27 29 29 31 32 31 32 34 48 48 54 60 60 66 69 71 72 73 73 76 76 76 75 75 75 75 75 75 74 75 75 75 75 75 75 75 74 73 72 71 71 72 72 72 72
35 32 28 29 27 28 30 31 31 29 31 32 47 46 53 57 67 69 69 71 72 73 73 75 76 76 75 75 75 75 75 75 75 75 75 75 75 75 75 74 74 73 72 72 72 72 73 72 72
33 31 27 26 27 28 28 29 30 30 30 36 47 52 53 66 68 69 70 70 72 73 74 74 76 76 75 75 75 75 75 75 75 75 75 75 75 75 74 74 73 73 73 72 72 72 72 71 71
32 30 27 26 26 27 27 27 27 28 37 38 53 51 53 67 69 68 69 70 72 74 74 74 75 75 75 75 75 75 75 75 75 75 75 75 75 75 74 73 73 73 73 73 73 72 72 71 71
32 30 28 27 25 25 26 27 29 33 37 42 47 54 55 65 68 69 70 72 73 73 73 73 72 74 74 74 75 75 75 75 75 75 75 75 75 74 74 73 73 73 73 73 73 73 72 72 71
32 28 27 27 26 27 28 27 34 38 37 37 53 59 64 68 70 70 70 70 71 72 72 72 71 72 73 73 74 75 74 75 75 75 75 73 73 73 73 72 72 73 72 72 72 73 72 72 72
29 27 27 29 28 28 28 30 35 33 35 36 57 63 65 67 67 68 68 67 68 69 71 71 71 71 73 73 73 73 73 73 73 73 73 72 71 71 72 72 72 73 73 72 72 72 72 72 70
28 26 27 27 28 28 27 27 30 31 34 41 54 62 64 66 66 66 68 68 68 69 69 70 70 70 70 72 72 73 73 72 72 72 72 70 70 70 71 70 71 71 72 70 70 70 69 68 67
29 26 27 26 27 30 28 31 34 34 34 48 52 63 64 64 65 66 65 66 68 69 70 70 71 70 71 72 71 71 72 71 71 72 71 70 69 68 69 69 68 68 69 69 68 68 67 66 66
26 25 25 25 25 24 25 29 33 36 39 48 55 61 64 64 65 66 66 66 67 66 68 69 70 70 70 71 71 71 71 71 70 71 71 70 68 67 68 68 67 67 68 68 68 68 67 66 65
23 25 24 24 24 24 23 23 27 36 40 45 54 57 61 61 64 65 66 65 66 66 67 67 68 68 69 70 70 70 71 71 70 70 70 70 69 67 66 66 67 67 68 68 68 68 68 67 66
20 19 22 24 23 22 23 24 27 37 40 39 51 55 58 60 61 61 64 65 66 67 68 67 67 66 67 68 69 69 69 70 69 69 70 70 69 67 66 65 66 67 68 68 68 68 68 67 69
16 17 14 17 19 21 25 18 35 38 39 39 43 52 55 56 58 58 59 63 66 67 67 68 67 67 66 66 67 66 67 67 68 67 68 69 69 67 66 65 65 67 68 68 68 68 68 68 68
15 13 16 16 19 17 24 20 24 38 39 39 40 45 48 50 53 60 59 61 65 66 67 68 68 67 67 67 67 65 66 66 65 66 66 67 67 68 66 66 67 68 69 70 69 68 68 67 67
14 12 14 14 18 16 26 28 33 35 38 39 39 40 42 44 45 46 56 62 63 65 67 67 68 68 68 69 68 69 69 68 69 67 68 67 67 68 68 68 68 70 70 69 68 67 66 65 65
14 12 13 15 18 20 20 28 30 33 39 39 39 40 41 43 45 47 62 64 64 65 65 66 66 67 68 67 67 68 69 70 68 68 69 69 68 69 69 70 70 70 69 69 68 67 65 65 64
16 13 12 15 16 22 23 27 31 35 38 39 40 41 41 42 44 46 49 64 63 64 64 65 65 66 67 67 67 68 68 70 71 70 70 70 70 70 69 69 69 70 69 68 67 66 66 65 65
18 14 13 13 25 33 26 26 31 37 39 39 40 40 42 42 43 44 47 57 63 63 64 65 65 66 67 66 65 67 70 70 70 70 71 70 70 70 70 69 69 69 69 68 67 67 66 65 66
16 17 16 30 27 23 33 17 29 34 36 38 39 40 42 43 44 43 46 49 62 62 63 63 64 64 65 64 65 64 64 65 68 69 69 71 72 72 71 70 70 70 70 69 68 68 67 66 65
14 18 16 23 29 30 32 29 30 35 34 34 36 37 38 42 44 43 44 48 50 59 62 61 62 63 63 63 63 63 65 68 68 68 68 70 70 71 72 71 71 70 70 70 68 68 67 67 65
18 16 17 23 23 17 24 27 23 28 29 32 32 33 35 38 42 44 44 45 47 57 61 62 61 61 62 62 63 64 66 67 66 67 67 68 69 69 69 70 70 70 69 69 68 68 67 67 65
16 13 12 11 14 16 26 27 24 25 26 29 28 29 34 37 39 43 44 43 42 46 56 60 61 60 62 63 65 66 66 66 66 65 65 64 64 64 64 66 68 68 68 68 67 67 66 66 65
14 13 12 9 16 19 25 21 21 29 34 33 38 39 32 37 40 43 43 45 50 52 55 58 59 62 64 62 61 61 61 61 61 60 60 59 61 61 62 64 64 64 65 66 65 64 64 63 63
13 12 14 20 20 15 23 21 23 38 40 42 41 32 36 41 43 51 58 59 59 60 60 60 59 59 59 59 59 58 58 58 58 58 58 59 59 60 59 60 60 61 62 63 63 62 62 62 62
13 15 12 19 15 12 19 24 21 37 39 41 37 38 48 56 56 56 56 56 56 57 57 57 57 57 57 57 57 56 56 56 56 56 56 57 57 56 56 56 57 57 58 59 60 61 61 61 60
13 13 19 22 20 19 19 20 35 39 40 42 42 51 54 54 53 52 53 54 55 55 55 55 54 53 53 52 53 53 53 52 52 51 51 52 53 53 52 53 54 54 55 56 56 57 58 56 58
11 14 19 17 26 28 24 22 38 41 43 45 52 54 54 52 50 49 51 52 52 51 50 49 48 49 50 50 49 48 46 46 46 47 48 50 49 49 50 50 50 50 51 53 53 53 54 55 55

GFSSGP_sfc_dewp_141.txt.gz
Dewpoint
58 51 39 36 36 34 32 31 38 35 42 40 47 49 48 50 48 43 67 68 69 71 73 73 76 76 76 76 76 76 76 76 75 75 75 75 76 76 75 75 75 74 72 72 73 73 73 73 74
55 42 35 33 35 33 30 32 35 37 37 36 47 51 49 47 58 65 65 69 69 71 72 71 76 76 76 75 75 75 75 75 75 75 75 76 76 76 75 75 75 73 72 72 73 73 72 73 72
43 37 30 31 34 32 32 31 34 32 32 33 36 50 48 53 59 64 66 69 70 70 71 73 76 75 76 75 75 75 75 75 75 75 76 76 76 76 76 76 74 72 72 72 72 72 72 72 72
37 35 32 29 31 33 33 32 31 31 33 34 40 38 54 58 59 64 68 69 69 68 70 75 76 76 75 75 75 75 75 75 75 75 75 75 75 76 76 75 74 73 72 71 72 72 72 72 72
36 34 28 28 29 30 32 32 30 32 31 31 38 42 50 60 68 68 68 68 68 69 69 72 76 76 75 75 75 75 75 74 75 75 75 75 75 75 75 75 74 73 72 71 71 72 72 72 71
33 32 27 27 29 30 31 32 30 32 30 36 44 46 55 66 68 68 68 68 68 69 71 72 75 75 75 75 75 75 74 75 75 75 75 75 75 74 74 74 73 73 72 72 72 72 72 72 71
27 28 21 25 27 29 30 31 31 30 32 35 44 49 59 66 68 69 69 70 69 70 71 71 71 74 75 75 75 75 75 75 75 75 75 75 75 74 73 73 73 73 73 72 72 71 71 70 70
32 27 19 25 25 25 29 28 28 34 36 40 52 53 56 68 68 69 69 70 70 69 70 70 71 69 70 71 75 75 75 75 75 75 75 75 75 74 73 72 73 72 72 72 72 72 72 71 71
32 24 15 19 23 24 27 28 32 38 36 56 63 64 66 69 69 68 69 69 70 70 70 69 70 71 70 70 72 74 74 74 75 74 75 73 70 71 71 71 72 71 71 72 72 72 72 72 72
27 22 19 25 27 24 27 29 29 32 34 43 62 66 67 69 68 67 67 67 68 69 70 70 71 72 71 69 72 70 70 69 70 70 71 69 70 70 69 71 72 72 72 72 72 72 71 69 62
29 19 23 28 29 28 27 27 28 28 30 40 57 64 66 67 68 67 67 67 66 68 70 70 72 73 71 70 70 70 69 70 71 71 72 71 70 70 69 69 68 69 70 66 67 66 64 63 63
26 27 26 23 28 27 28 29 28 32 31 46 62 65 66 66 67 67 67 66 66 68 69 70 71 72 72 71 70 70 69 69 69 70 72 72 70 70 70 68 68 68 66 67 68 65 68 68 66
27 27 27 24 26 28 27 26 30 35 46 53 63 63 65 66 67 67 68 68 69 69 70 70 71 72 73 73 71 71 71 70 70 70 71 70 69 70 69 68 67 67 66 65 65 67 68 68 68
27 26 27 26 26 25 25 25 25 29 43 53 61 62 62 65 66 67 68 69 69 70 70 70 71 72 71 72 73 72 72 71 71 70 70 72 71 70 68 68 68 67 66 65 66 68 68 68 68
24 23 23 25 26 23 25 23 24 29 40 49 55 61 60 62 65 66 67 69 69 70 71 71 71 71 72 72 72 72 71 71 71 70 72 72 72 72 70 67 66 65 67 69 69 69 69 68 69
15 19 16 18 25 24 23 12 23 27 39 42 48 52 58 59 59 63 66 68 69 70 70 71 69 70 71 73 72 71 71 71 71 71 71 72 72 72 71 68 66 65 67 68 68 69 68 68 68
14 7 12 13 21 22 25 16 21 28 36 40 45 48 50 54 59 61 62 65 68 69 70 70 70 69 70 71 70 70 70 70 69 70 69 70 71 70 70 67 66 68 66 68 68 69 70 69 70
11 7 10 9 20 20 21 18 24 35 36 37 43 46 46 46 48 54 59 59 63 68 70 70 70 70 70 68 69 70 68 67 68 68 68 69 68 68 69 68 69 69 67 67 67 70 71 70 70
14 9 10 11 18 17 16 19 27 37 38 38 38 42 45 45 45 48 52 58 62 65 68 70 70 70 69 68 69 68 69 69 67 68 69 68 68 68 71 69 70 71 70 70 71 70 71 70 69
13 11 10 14 16 18 18 19 20 25 34 35 35 39 43 44 45 46 52 60 64 65 66 68 69 70 70 69 70 70 69 69 70 69 70 70 70 70 71 71 71 72 71 71 70 70 69 68 70
16 12 13 11 16 24 25 21 21 23 32 37 39 40 43 44 43 46 49 55 60 64 66 66 67 69 70 70 68 69 71 72 71 71 71 72 71 72 72 72 72 72 71 71 71 71 70 68 69
16 17 12 20 16 16 27 7 25 24 29 34 37 41 41 42 45 46 48 51 56 58 63 66 68 68 68 70 69 69 66 66 69 70 71 72 73 73 73 73 72 72 71 72 72 72 70 69 67
11 18 21 23 17 25 30 20 21 34 26 29 36 39 42 43 43 44 45 46 48 55 60 63 67 68 69 69 69 68 68 68 70 70 70 72 72 73 73 74 74 72 72 72 71 70 71 70 69
14 17 20 23 21 12 23 15 18 25 25 27 31 35 38 41 43 45 46 47 47 47 56 62 64 66 67 67 68 68 68 68 67 68 69 68 69 69 68 68 72 72 73 72 72 71 70 70 68
15 17 13 11 10 11 24 19 14 27 28 29 29 31 35 36 38 41 43 44 47 49 54 60 63 64 65 65 66 66 67 69 68 66 63 63 63 63 65 67 67 68 69 70 70 70 69 70 70
15 17 8 6 10 11 26 11 15 30 37 38 40 42 43 43 36 38 41 44 44 47 52 59 62 64 66 66 67 67 66 62 61 61 60 58 57 57 61 60 62 63 65 66 67 67 67 68 67
15 12 17 19 19 11 18 23 26 33 38 40 41 38 35 39 39 42 45 48 50 56 61 63 64 63 63 62 61 61 61 60 60 60 59 55 58 53 57 57 57 58 58 60 64 63 64 65 65
15 16 16 20 15 8 17 17 14 33 37 41 39 42 46 47 51 55 57 58 59 60 61 62 61 59 57 58 57 56 57 56 56 56 56 57 56 56 55 55 56 56 56 56 57 56 58 60 61
14 13 19 25 19 18 19 18 36 40 42 43 43 52 53 54 54 55 56 57 57 57 56 56 57 56 56 55 54 54 51 51 52 51 52 52 53 52 51 51 51 51 53 55 56 56 55 55 56
14 14 20 18 24 28 27 29 39 43 45 44 52 52 53 53 53 54 55 54 53 52 53 53 51 50 49 48 49 50 49 49 50 50 50 50 49 48 47 47 47 46 47 51 50 50 51 52 52

GFSSGP_sfc_dewp_144.txt.gz
Dewpoint
54 42 36 34 34 34 24 22 34 37 42 40 45 47 46 46 46 47 63 63 63 65 67 71 76 77 77 77 77 77 76 76 76 75 75 76 76 76 76 75 75 74 73 73 72 72 72 72 72
40 37 33 32 31 30 24 23 32 38 38 35 45 48 44 46 55 62 63 64 65 65 66 67 76 76 77 76 76 76 76 76 75 75 76 76 76 75 75 75 74 73 73 73 73 73 73 74 74
42 35 32 31 31 28 25 26 32 36 35 35 41 46 43 53 58 59 64 66 66 66 64 71 76 76 76 76 76 76 76 75 75 76 76 76 76 76 76 75 74 72 73 73 73 73 73 72 72
30 31 31 30 29 30 31 30 33 33 34 34 35 38 51 58 58 61 65 65 65 63 65 74 76 76 76 76 76 75 75 75 76 76 76 76 75 76 76 75 74 73 72 73 73 72 72 72 73
30 26 28 29 29 31 34 33 31 32 33 33 42 42 50 60 64 64 64 64 63 63 66 70 76 76 75 75 75 75 75 75 76 76 75 75 75 75 75 74 73 72 72 71 72 71 72 72 71
20 21 18 22 24 29 33 34 32 31 33 33 38 46 57 63 64 63 62 63 62 64 67 70 75 75 75 75 75 75 75 75 75 75 75 75 75 75 74 73 73 72 72 71 71 72 71 70 70
17 16 15 13 19 25 31 35 32 31 32 33 39 46 61 62 66 62 62 63 63 64 66 68 69 73 75 75 74 74 74 74 75 75 75 75 75 74 73 73 73 73 72 72 72 71 71 70 70
21 14 12 9 9 17 30 32 34 32 33 38 47 45 57 65 67 65 63 63 64 64 65 66 67 66 68 70 75 74 74 74 74 75 75 75 75 73 72 73 73 72 72 72 72 71 70 70 70
26 17 14 7 9 17 23 28 32 34 33 45 55 56 63 66 67 65 65 64 64 64 65 64 64 65 65 65 70 74 74 75 74 74 75 73 66 70 71 69 71 71 71 71 72 71 71 71 71
24 19 10 6 10 15 20 24 29 33 34 41 55 63 66 67 66 64 63 63 64 64 65 65 65 66 65 64 69 67 67 67 67 67 70 66 66 68 65 69 71 71 71 70 71 71 70 69 55
20 13 11 9 18 20 19 24 28 31 32 35 46 60 66 66 66 65 62 64 64 65 65 65 69 69 67 65 66 65 66 66 67 69 70 67 65 67 65 63 64 65 70 63 66 64 61 57 58
20 17 14 17 22 21 19 20 24 27 31 36 49 60 64 65 65 64 64 64 64 65 66 67 70 71 70 66 67 66 66 67 67 68 72 69 67 67 65 62 62 66 62 63 65 60 63 65 65
22 18 18 19 20 20 20 21 19 19 29 40 55 61 63 66 66 66 65 66 66 66 67 68 70 72 72 72 68 67 68 67 67 68 70 68 67 67 65 65 64 62 60 62 60 62 66 67 66
23 18 21 20 17 19 17 19 21 26 37 44 54 57 59 63 66 67 67 67 67 68 69 69 70 73 72 72 72 70 70 68 68 68 68 70 68 69 66 65 63 62 61 59 59 62 67 67 67
19 19 20 20 18 18 21 19 19 20 38 43 52 54 56 60 64 67 68 69 69 69 71 70 71 72 73 73 72 71 69 68 69 68 71 71 71 71 70 64 63 61 62 64 64 67 68 67 67
16 18 15 17 19 19 21 14 21 22 34 39 49 51 53 57 61 64 67 69 70 71 72 72 69 70 73 72 71 69 68 69 69 70 71 72 71 71 71 65 63 61 63 62 65 66 66 66 65
14 12 11 11 17 18 20 13 14 24 33 37 43 44 46 52 56 60 62 66 70 71 72 72 72 70 71 72 71 71 72 71 71 71 70 71 71 70 70 65 63 67 62 61 63 67 68 68 69
11 8 8 8 14 17 18 14 16 21 25 34 38 40 41 44 51 56 58 58 63 68 72 72 72 72 72 70 71 69 68 69 69 68 68 70 69 69 69 65 66 67 62 61 62 67 67 69 69
13 11 7 9 15 17 18 16 20 21 21 28 35 36 40 41 44 49 54 57 58 63 69 71 72 73 71 69 67 66 66 68 69 68 68 69 69 68 69 65 66 68 65 67 68 67 69 68 71
12 13 10 11 15 15 15 17 18 24 24 23 29 35 38 37 38 46 49 54 58 61 64 67 71 72 72 69 69 67 66 66 66 66 69 69 69 69 69 70 69 71 68 72 72 72 68 67 69
13 14 12 11 13 13 15 14 17 23 28 28 29 35 34 36 37 42 46 52 57 61 64 66 69 71 72 72 70 70 69 69 69 69 69 71 71 72 72 71 72 72 72 75 75 74 72 63 68
14 12 10 10 11 8 17 5 18 18 22 25 29 30 29 33 37 39 42 47 53 55 61 65 67 69 70 72 71 71 67 65 65 67 69 75 73 73 73 73 73 74 74 76 75 75 70 69 69
15 13 13 14 13 15 16 9 15 19 17 18 23 26 28 32 37 37 39 42 43 48 53 61 66 69 70 71 72 69 70 65 67 69 70 72 73 71 69 72 73 73 72 73 74 74 74 72 70
14 16 13 15 12 17 19 9 16 19 20 22 23 25 28 28 29 33 35 38 38 37 44 57 65 67 69 70 71 71 70 69 67 68 67 68 70 70 70 69 72 73 73 73 73 73 73 72 69
17 21 15 12 12 9 18 12 16 22 21 21 23 24 25 27 30 31 34 34 37 40 44 55 63 65 67 67 68 69 70 70 69 68 66 66 64 64 66 68 68 67 69 69 71 71 71 70 68
15 18 11 12 10 13 21 13 14 22 21 25 29 33 33 30 30 32 34 37 38 40 45 55 62 64 66 66 68 68 69 66 65 64 62 61 59 59 62 62 62 62 62 64 67 66 66 68 67
13 14 15 14 12 15 16 16 24 27 31 35 36 39 41 42 38 39 36 39 40 43 55 58 63 64 64 64 64 64 65 64 62 63 62 58 60 56 57 57 58 58 58 58 60 57 61 63 65
14 15 14 15 16 12 13 15 15 28 29 35 37 40 41 43 47 51 53 56 55 59 62 62 62 62 61 61 60 58 58 58 58 58 57 57 56 55 55 53 55 55 55 56 58 56 56 58 56
13 10 15 16 18 15 14 13 26 31 37 41 48 49 52 53 55 56 57 57 58 57 57 58 58 57 55 54 54 54 53 53 53 53 53 53 53 51 49 49 49 49 50 53 54 54 51 53 55
16 14 19 16 21 21 18 25 38 40 42 48 50 52 53 55 56 56 56 56 56 55 54 53 52 49 49 50 50 51 51 51 52 51 51 51 50 48 46 47 46 45 45 48 48 48 48 49 49

GFSSGP_sfc_dewp_147.txt.gz
Dewpoint
53 36 40 32 31 30 25 23 25 31 35 41 44 44 44 47 48 52 59 59 61 64 69 72 77 77 78 77 77 76 76 76 76 76 75 76 76 76 76 75 75 73 73 72 72 72 72 71 71
38 35 36 33 30 25 22 22 24 32 39 38 42 44 43 50 56 57 57 59 62 64 67 71 77 76 77 77 77 76 76 76 76 75 76 76 76 76 75 75 74 73 72 72 72 72 72 73 73
46 38 34 31 29 26 24 19 24 31 37 36 41 45 43 53 56 57 59 61 62 63 64 73 77 77 77 77 77 76 76 75 75 76 76 76 75 75 75 75 74 72 73 73 72 73 73 73 71
26 28 33 29 27 29 26 25 23 33 35 36 37 41 52 57 56 59 60 61 61 60 64 75 76 77 77 77 76 76 76 75 76 76 76 76 75 75 75 74 73 72 73 73 72 72 72 71 72
25 20 24 24 25 28 28 30 28 31 33 33 36 41 52 59 61 61 61 61 58 59 64 71 76 76 77 77 76 76 76 75 76 76 76 75 75 75 74 73 73 72 72 73 72 71 71 71 71
19 18 15 17 19 23 29 32 31 30 31 32 38 43 55 59 61 60 60 59 58 61 64 69 75 76 76 76 76 75 75 75 76 76 76 76 75 75 74 73 72 72 71 71 71 71 71 70 70
16 11 11 10 13 18 25 33 33 29 30 31 37 42 58 59 60 60 60 58 59 63 62 65 66 72 75 75 75 75 75 75 75 75 75 75 75 75 74 73 73 72 72 71 71 71 70 70 70
17 11 7 6 8 11 20 31 33 30 29 38 42 43 56 62 60 59 58 57 59 62 63 63 64 63 65 69 75 75 75 75 75 75 75 75 75 74 73 73 73 72 72 72 71 70 70 70 70
17 13 9 7 6 8 14 28 32 33 30 35 46 54 62 63 61 59 58 58 59 60 63 63 62 63 63 62 68 74 74 75 75 74 75 73 65 69 70 70 72 71 71 71 71 71 71 71 72
16 14 12 11 9 6 7 25 28 32 32 36 50 58 60 63 63 59 59 59 59 60 61 62 63 64 63 62 67 65 64 64 64 64 69 64 64 67 66 69 72 71 70 70 71 71 71 71 59
16 14 14 11 12 8 6 16 24 29 32 33 46 58 60 62 64 61 60 60 60 61 61 61 68 69 64 63 65 64 64 64 64 66 69 69 63 66 64 65 65 64 70 62 66 65 64 59 56
13 17 16 12 8 9 11 14 19 25 31 34 38 57 61 61 63 61 60 61 61 61 62 63 65 70 70 64 65 64 64 65 65 66 70 70 64 66 64 59 60 64 62 63 63 60 63 62 62
15 14 14 12 10 15 18 16 20 24 28 35 43 55 58 61 63 63 62 62 63 63 63 63 66 70 72 71 66 65 66 64 66 68 70 67 66 67 64 64 60 60 59 58 60 59 61 63 65
18 16 15 12 14 17 18 16 17 20 21 29 43 53 55 59 63 64 64 64 65 66 66 66 68 73 71 71 73 68 68 67 67 66 68 70 68 71 64 65 63 60 58 58 57 59 61 66 65
18 17 17 15 15 18 18 15 16 18 20 25 41 49 52 57 61 64 65 66 67 68 69 69 69 72 75 73 72 71 68 67 66 66 71 71 71 70 73 64 63 60 62 62 62 62 63 65 65
13 19 17 16 17 16 16 14 14 18 24 33 38 47 51 54 59 62 65 68 69 71 71 71 68 69 73 74 72 70 68 67 66 67 67 70 71 72 73 66 63 62 62 60 60 61 63 63 63
14 15 17 15 17 14 15 14 15 16 20 33 37 44 48 52 56 61 63 68 73 73 72 73 71 69 71 74 72 72 73 69 67 71 71 71 71 71 72 67 63 70 61 60 60 62 66 66 67
12 12 15 16 15 15 14 16 13 19 20 31 36 42 46 48 52 58 61 66 69 71 73 74 73 72 72 71 72 69 68 69 69 68 69 70 70 70 71 70 70 68 62 60 59 68 65 67 70
13 14 15 16 15 16 16 16 12 18 21 29 35 39 40 43 49 53 54 56 60 67 70 72 74 75 72 69 67 66 66 66 67 67 71 69 69 68 72 67 69 68 66 67 70 66 68 65 68
14 13 14 13 12 15 17 16 16 20 22 24 31 36 37 39 43 48 52 55 56 60 66 71 72 75 74 71 71 67 66 65 66 66 68 68 68 70 70 71 69 70 66 72 71 73 72 67 67
16 14 15 11 13 14 17 16 16 19 20 21 27 34 35 39 39 44 48 52 56 58 62 65 69 72 73 73 71 71 70 69 66 67 66 68 69 70 72 71 73 76 75 77 75 74 73 68 66
18 14 13 11 13 11 17 10 18 18 21 22 21 25 30 36 37 38 43 49 53 57 59 63 67 70 71 73 72 75 70 67 69 71 72 72 71 72 73 74 74 76 77 77 73 72 72 72 65
17 15 15 13 15 14 11 8 12 17 21 25 24 24 30 35 34 34 36 43 46 52 54 62 66 68 69 71 73 75 72 67 66 73 72 74 74 72 72 73 73 73 73 75 75 75 74 73 73
18 15 14 15 13 11 14 10 7 12 17 26 27 29 31 28 28 33 36 39 42 42 46 56 65 67 68 69 70 72 71 71 72 69 73 74 73 73 70 70 72 73 73 72 73 74 73 74 74
18 18 12 11 10 12 17 15 15 19 16 19 23 22 24 25 26 28 32 32 36 39 41 57 64 65 66 66 67 70 72 73 72 71 73 70 67 66 68 67 67 66 68 67 69 70 71 71 71
19 18 13 14 12 9 17 16 12 23 22 19 20 23 24 25 26 28 29 32 33 36 39 54 61 63 64 65 66 71 71 68 66 68 66 63 60 61 63 63 62 62 61 61 62 60 64 68 65
16 15 16 16 15 10 13 17 21 22 21 22 24 26 27 28 29 29 30 34 36 39 50 56 63 65 66 66 67 66 66 66 65 65 64 60 61 56 59 59 59 59 58 59 61 57 61 62 62
18 20 17 16 18 15 16 18 16 21 27 30 33 36 37 38 35 35 42 45 46 59 62 62 62 63 63 63 62 61 61 60 60 60 59 58 57 55 54 54 53 53 53 54 57 56 57 58 54
14 16 18 19 15 17 17 15 25 28 30 35 37 39 49 50 49 51 53 58 58 58 58 60 61 59 57 56 56 55 54 54 54 54 53 54 54 52 50 49 48 48 49 51 53 54 50 50 53
16 20 21 19 21 19 20 25 25 35 39 45 46 52 52 52 53 53 53 55 56 57 57 56 54 51 50 51 52 52 52 52 53 52 52 51 51 49 47 46 45 43 43 47 47 46 45 46 48